STARLINK-31004, 58528

Orbit data source: Space-Track

STARLINK-31004, 58528 is a payload satellite owned by SpaceX/Seattle (US) in LEO that was launched on Thu, 07 Dec 2023 UTC via an FALCON 9 launch vehicle from the Air Force Eastern Test Range (AFETR). Payload-class satellites include a variety of spacecraft equipped with specific instruments for various scientific and technological missions. These include communications satellites like Starlink; space stations such as the ISS; scientific satellites like the Hubble; Earth observation satellites from companies like Planet Labs, Umbra, and HawkEye 360; GPS; miniature CubeSats for education and research; and military/defense satellites.

Loading next visibility...
Identifier
58528, 2023-191W
Orbit
LEO
Country
Flag of USUS
Related business
Manufacturer
SpaceX/Seattle
Mission
Operational Commercial Communications
Bus & Motor
STARLINK V2M, Unknown motor
Mass
730 kg wet, ~700 kg dry
Launch date (UTC)
2023-12-07 (3 years ago)
Launch vehicle
FALCON 9
Launch site
Air Force Eastern Test Range (AFETR)
Object type
Payload
Rocket body
Debris
Shape & HBR
Box + 2 Pan, 17.7 m
Radar Cross Section
33.884 m², Large (>1 m²)

Expand to show TLE details & history
Last TLE update: 2 days ago

TLE from 2 days ago
0 STARLINK-31004
1 58528U 23191W   26171.48288208  .00002304  00000-0  93206-4 0  9994
2 58528  43.0018 242.7897 0000583 233.9137 126.1661 15.27581792141195
Epoch: 2026-06-20T11:35Z
TLE epoch observation values (Epoch: 2026-06-20T11:35:21.011Z)
Latitude
-0.00001°
Longitude
160.25528°
Altitude
483.055 km
Speed
7.626 km/s
True Right ascension
16h 11m 09s
True Declination
0° 00' 00"
Sunlit
Object was in full shadow at epoch
Visualization orbit readout
Latitude
Unknown
Longitude
Unknown
Altitude
Unknown
Speed
Unknown
Apparent Right ascension
Unknown
Apparent Declination
Unknown
Sunlit
N/A
Visualization observer readout
Local Sidereal Time
21:27:51
Azimuth
Unknown
Elevation
Unknown
Doppler factor
Unknown
Orbital elements
Apogee altitude
485.389 km
Perigee altitude
484.588 km
Semi-major axis
6,863.126 km
Eccentricity
0.00006
Inclination
43.0018°
RAAN
242.7897°
Arg. of periapsis
233.9137°
True anomaly
126.17149°
Mean anomaly
126.1661°
Eccentric anomaly
126.1688°
Mean motion
3.81733 °/min
Orbital period
94.31 mins
BSTAR
0.000093206
Loading maneuver chart data...
Computing Atmospheric mass density...
Loading historical data...
Loading historical data...
Loading historical data...
Loading historical data...
Loading historical data...
Loading historical data...
Loading historical data...

Documentation

Showing up to 5 results
|